Regional Weather Roundup
Issued by NWS

Home | Current Version | Previous Version | Graphics & Text | Print | Product List | Glossary On
Versions: 1 2 3 4 5 6 7 8 9 10 11 12 13 14 15 16 17 18 19 20 21 22 23 24 25 26 27 28 29 30 31 32 33 34 35 36 37 38 39 40 41 42 43 44 45 46 47 48 49 50
000
ASUS43 KLSX 060907
RWRMO

WEATHER SUMMARY FOR MISSOURI
NATIONAL WEATHER SERVICE SPRINGFIELD MO
300 AM CST FRI MAR 06 2015

NOTE: "FAIR" INDICATES FEW OR NO CLOUDS BELOW 12,000 FEET WITH NO
       SIGNIFICANT WEATHER AND/OR OBSTRUCTIONS TO VISIBILITY.
       CURRENT SKY AND/OR WEATHER CONDITIONS ARE NOT AVAILABLE FOR
       CHILLICOTHE AND FARMINGTON.

MOZ001>031-035>038-043-044-053-054-061000-
...NORTHERN AND WESTERN MISSOURI...

CITY           SKY/WX    TMP DP  RH WIND       PRES   REMARKS
KANSAS CTY INT CLEAR     25  14  63 S16       30.35F WCI  12
KANSAS C DTWN  CLEAR     27  13  55 SW10      30.39F WCI  17
LEE`S SUMMIT   CLEAR     25  12  58 S15       30.39F WCI  13
ST JOSEPH      CLEAR     26  15  63 S10       30.35F WCI  16
CHILLICOTHE      N/A     20  10  65 S6        30.42F WCI  12
KIRKSVILLE     CLEAR     16   9  74 S9        30.42F WCI   4

$$
MOZ066>068-077>081-088>096-101>105-061000-
...SOUTHWEST MISSOURI...

CITY           SKY/WX    TMP DP  RH WIND       PRES   REMARKS
SPRINGFIELD    CLEAR     21  12  68 S9        30.46F WCI  11
JOPLIN         CLEAR     23  13  65 S7        30.48R WCI  15

$$
MOZ032>034-039>042-045>050-055>058-069>072-061000-
...CENTRAL MISSOURI...

CITY           SKY/WX    TMP DP  RH WIND       PRES   REMARKS
COLUMBIA       CLEAR     16   9  74 SE8       30.47F WCI   5
JEFFERSON CITY CLEAR     18   9  68 E5        30.51F WCI  11
ROLLA          CLEAR     17   8  67 S7        30.46F WCI   8
SEDALIA        CLEAR     20  11  68 S9        30.46F WCI   9
WHITEMAN AFB   CLEAR     22  12  65 S9        30.43F WCI  11
WARRENSBURG    CLEAR     23  12  63 S8        30.43F WCI  14
OSAGE BEACH    CLEAR     18   9  68 S5        30.48F WCI  11

$$
MOZ051-052-059>065-061000-
...EAST CENTRAL MISSOURI...

CITY           SKY/WX    TMP DP  RH WIND       PRES   REMARKS
ST LOUIS INTL  CLEAR     16   6  65 SE7       30.55F WCI   6
SPIRIT OF STL  CLEAR     13   9  84 CALM      30.54F
ST CHARLES     CLEAR      9   4  80 NE5       30.56F WCI   1

$$
MOZ072>076-082>087-097>100-106>115-061000-
...SOUTH CENTRAL AND SOUTHEAST MISSOURI...

CITY           SKY/WX    TMP DP  RH WIND       PRES   REMARKS
CAPE GIRARDEAU FOG       -1  -2  95 CALM      30.60F VSB 1/4
FARMINGTON     CLEAR     10   7  85 SE5       30.54F WCI   2
POPLAR BLUFF   PTCLDY    10   6  84 CALM      30.58F
WEST PLAINS    CLEAR     16   7  67 S6        30.50F WCI   7

$$


USA.gov is the U.S. government's official web portal to all federal, state and local government web resources and services.